SAOCOM 1B

Last updated on Thu Mar 05 2026 00:02:22 GMT+0000 (Coordinated Universal Time)

1 46265U 20059A 26063.66092845 .00000237 00000+0 36318-4 0 9992 2 46265 97.8880 251.0023 0001409 81.3785 278.7588 14.82164871298000
UTC large
Height (km)
Speed (km/s)
/
Latitude / Longitude
Inclination (degrees)
Orbital Period (minutes)
Azimuth
Elevation
Range (km)
Doppler Factor

Next 0 passes for location: London (51.5072 / 0.1276)

Sorry there are no passes over London.